EW7770 Weather Reports


time (UTC)temp
C
wind
direction
speed
KPH
gust
KPH
rain 1hr
cm
rain 24hr
cm
rain mn
cm
humidity
%
barometer
mb
20210620102126 15 360 1.6 1.6 0.00 1.30 0.03 91 1006.4
20210620101123 15 360 0.0 1.6 0.00 1.30 0.03 92 1006.2
20210620100124 14 360 0.0 0.0 0.00 1.30 0.03 92 1006.0
20210620095124 13 334 1.6 3.2 0.00 1.30 0.03 93 1005.9
20210620094222 13 270 0.0 0.0 0.00 1.30 0.03 93 1005.8
20210620093223 13 225 0.0 0.0 0.00 1.30 0.03 93 1005.8
20210620092225 13 225 0.0 0.0 0.00 1.30 0.03 93 1005.6
20210620091323 13 180 0.0 0.0 0.00 1.30 0.03 93 1005.5
20210620090323 13 360 0.0 1.6 0.00 1.30 0.03 92 1005.4
20210620090224 13 360 1.6 4.8 0.00 1.30 0.03 92 1005.4
20210620085224 13 360 1.6 1.6 0.00 1.30 0.03 92 1005.5
20210620085123 13 360 0.0 1.6 0.00 1.30 0.03 93 1005.5
20210620084124 13 360 0.0 0.0 0.00 1.30 0.03 92 1005.4
20210620083125 13 360 1.6 1.6 0.00 1.30 0.03 92 1005.3
20210620082222 14 337 1.6 4.8 0.00 1.30 0.03 92 1005.2
20210620081322 14 22 0.0 0.0 0.00 1.30 0.03 92 1005.0
20210620080324 14 22 0.0 1.6 0.03 1.30 0.03 92 1005.0
20210620075422 14 292 0.0 0.0 0.03 1.30 0.03 92 1004.9
20210620074423 14 326 1.6 3.2 0.03 1.30 0.03 92 1004.6
20210620073424 15 337 3.2 4.8 0.03 1.30 0.03 93 1004.8
20210620072522 15 337 0.0 1.6 0.03 1.30 0.03 93 1004.8
20210620071525 15 337 3.2 4.8 0.03 1.30 0.03 93 1004.8
20210620070622 15 337 1.6 4.8 0.03 1.30 0.03 93 1004.7
20210620070524 15 340 3.2 4.8 0.03 1.30 0.00 92 1004.7
20210620065524 15 315 0.0 1.6 0.00 1.27 0.00 92 1004.7
20210620064524 15 315 0.0 0.0 0.00 1.27 0.00 93 1004.7
20210620063623 15 315 0.0 0.0 0.00 1.27 0.00 93 1004.8
20210620063523 15 315 0.0 0.0 0.00 1.27 0.00 92 1004.7
20210620062523 15 315 0.0 0.0 0.00 1.27 0.00 93 1004.8
20210620061525 15 315 0.0 0.0 0.00 1.27 0.00 93 1004.7
20210620060524 15 315 0.0 0.0 0.00 1.27 0.00 93 1004.6
20210620055524 15 315 0.0 0.0 0.00 1.27 0.00 92 1004.8
20210620054524 15 315 0.0 0.0 0.00 1.27 0.00 93 1004.7
20210620053523 15 315 0.0 1.6 0.00 1.27 0.00 93 1004.7
20210620052525 15 315 0.0 0.0 0.00 1.27 0.00 92 1004.7
20210620051523 15 315 0.0 0.0 0.00 1.27 0.00 92 1004.8
20210620050525 15 315 0.0 0.0 0.00 1.27 0.00 93 1004.9
20210620045524 15 315 0.0 0.0 0.00 1.27 0.00 93 1004.8
20210620044526 15 315 0.0 0.0 0.00 1.27 0.00 93 1005.1
20210620043525 15 315 0.0 0.0 0.00 1.27 0.00 93 1005.0
20210620042524 15 315 0.0 0.0 0.00 1.27 0.00 92 1004.9
20210620041524 15 315 0.0 0.0 0.00 1.27 0.00 92 1004.9
20210620040524 15 315 0.0 0.0 0.00 1.27 0.00 92 1005.0
20210620035535 15 315 0.0 0.0 0.00 1.27 1.27 92 1005.1
20210620034631 15 315 0.0 0.0 0.00 1.27 1.27 92 1005.1
20210620033633 15 315 0.0 0.0 0.00 1.27 1.27 91 1005.2
20210620032634 15 315 0.0 0.0 0.00 1.27 1.27 92 1005.1
20210620031732 15 315 0.0 0.0 0.00 1.27 1.27 92 1005.1
20210620030733 15 315 0.0 0.0 0.00 1.27 1.27 91 1005.1
20210620030631 15 315 0.0 0.0 0.00 1.27 1.27 92 1005.1
20210620025631 15 315 0.0 0.0 0.00 1.27 1.27 90 1005.0
20210620024631 15 247 0.0 0.0 0.00 1.27 1.27 90 1005.1
20210620023633 15 247 0.0 0.0 0.00 1.27 1.27 91 1005.1
20210620022634 15 247 0.0 0.0 0.00 1.27 1.27 91 1005.3
20210620021731 15 247 0.0 0.0 0.00 1.27 1.27 90 1005.3
20210620020733 16 270 0.0 0.0 0.00 1.27 1.27 90 1005.0
20210620015735 16 247 0.0 0.0 0.00 1.27 1.27 90 1005.0
20210620014731 16 247 1.6 3.2 0.00 1.27 1.27 89 1005.1
20210620013831 16 253 0.0 4.8 0.00 1.27 1.27 89 1005.1
20210620013733 16 247 0.0 1.6 0.00 1.27 1.27 89 1005.1
20210620012734 16 269 1.6 3.2 0.00 1.27 1.27 89 1005.0
20210620011734 16 252 1.6 3.2 0.00 1.27 1.27 90 1005.0
20210620010733 16 244 1.6 4.8 0.00 1.27 1.27 91 1004.8
20210620010633 16 270 0.0 3.2 0.00 1.27 1.27 91 1004.8
20210620005632 16 225 0.0 0.0 0.00 1.27 1.27 91 1004.6
20210620004731 16 225 0.0 3.2 0.00 1.27 1.27 91 1004.6
20210620003732 16 225 0.0 0.0 0.00 1.27 1.27 91 1004.6
20210620002732 16 219 0.0 3.2 0.03 1.27 1.27 91 1004.7
20210620001734 16 247 0.0 0.0 0.03 1.27 1.27 91 1004.6
20210620000733 16 247 0.0 0.0 0.03 1.27 1.27 91 1004.5
20210619235732 17 247 0.0 0.0 0.03 1.27 1.27 91 1004.3
20210619234831 17 247 0.0 0.0 0.03 1.27 1.27 91 1004.5
20210619233833 17 270 0.0 1.6 0.03 1.27 1.27 91 1004.6
20210619232932 17 292 0.0 0.0 0.00 1.24 1.24 91 1004.8
20210619231933 16 225 1.6 1.6 0.00 1.24 1.24 89 1005.0
20210619231832 16 226 3.2 8.0 0.00 1.24 1.24 90 1005.0
20210619230931 16 247 1.6 1.6 0.05 1.24 1.24 90 1004.6
20210619225933 17 247 0.0 0.0 0.33 1.24 1.24 89 1004.5
20210619225831 17 247 0.0 0.0 0.38 1.24 1.24 90 1004.5
20210619224832 17 247 0.0 0.0 0.86 1.24 1.24 89 1004.6
20210619224733 17 247 0.0 0.0 0.86 1.24 1.24 90 1004.6
20210619223734 16 247 0.0 3.2 0.91 1.24 1.24 90 1004.6
20210619222832 16 202 1.6 3.2 0.91 1.24 1.24 90 1004.5
20210619221831 16 202 0.0 1.6 0.91 1.24 1.22 89 1005.0
20210619220834 16 302 0.0 4.8 0.86 1.19 1.17 88 1005.8
20210619215835 17 279 3.2 6.4 0.53 0.86 0.79 86 1005.6
20210619214933 17 247 0.0 3.2 0.20 0.46 0.38 84 1005.0
20210619213934 17 225 1.6 3.2 0.08 0.33 0.33 85 1004.0
20210619212933 17 247 0.0 1.6 0.08 0.33 0.33 84 1004.2
20210619211933 17 241 3.2 4.8 0.08 0.33 0.33 83 1004.0
20210619210934 18 202 3.2 4.8 0.08 0.33 0.33 81 1004.2
20210619205935 20 247 1.6 3.2 0.08 0.33 0.33 77 1004.2
20210619204932 21 244 0.0 1.6 0.00 0.25 0.25 70 1005.0
20210619203931 21 255 0.0 4.8 0.00 0.25 0.25 68 1004.1
20210619203031 21 262 3.2 6.4 0.00 0.25 0.25 66 1003.6
20210619202034 22 225 1.6 1.6 0.00 0.25 0.25 65 1003.6
20210619201032 23 256 1.6 4.8 0.00 0.25 0.25 63 1003.5
20210619200037 24 244 3.2 8.0 0.00 0.25 0.25 60 1003.4
20210619195032 25 230 3.2 8.0 0.00 0.25 0.25 58 1003.2
20210619194931 25 212 1.6 4.8 0.00 0.25 0.25 58 1003.2
20210619193933 26 180 0.0 3.2 0.00 0.25 0.25 57 1002.7
20210619192933 25 194 4.8 8.0 0.00 0.25 0.25 60 1003.3
20210619191932 25 242 4.8 8.0 0.00 0.25 0.25 59 1003.6
20210619190933 25 200 3.2 8.0 0.00 0.25 0.25 59 1003.5
20210619185933 24 217 3.2 9.7 0.00 0.25 0.25 61 1004.1
20210619184934 23 200 0.0 4.8 0.00 0.25 0.25 62 1004.3
20210619183933 23 233 3.2 4.8 0.00 0.25 0.25 64 1004.4
20210619183831 23 244 0.0 3.2 0.00 0.25 0.25 64 1004.4
20210619182833 22 213 1.6 8.0 0.00 0.25 0.25 67 1004.3
20210619181831 22 233 4.8 8.0 0.00 0.25 0.25 67 1004.5
20210619180832 22 215 6.4 11.3 0.00 0.25 0.25 68 1004.5
20210619175834 22 264 4.8 9.7 0.00 0.25 0.25 68 1004.4
20210619174932 22 210 3.2 6.4 0.00 0.25 0.25 68 1004.4
20210619174031 22 201 3.2 8.0 0.00 0.25 0.25 69 1004.4
20210619173032 22 198 3.2 8.0 0.00 0.25 0.25 72 1004.6
20210619172033 21 222 4.8 9.7 0.00 0.25 0.25 75 1004.6
20210619171033 21 221 6.4 9.7 0.00 0.25 0.25 75 1004.9
20210619170037 20 194 3.2 8.0 0.00 0.25 0.25 76 1005.0
20210619165031 20 212 4.8 9.7 0.00 0.25 0.25 79 1005.4
20210619164032 20 202 0.0 1.6 0.00 0.25 0.25 81 1005.4
20210619163033 18 157 0.0 3.2 0.00 0.25 0.25 84 1005.5
20210619162131 18 224 4.8 9.7 0.00 0.25 0.25 83 1005.6
20210619161133 18 240 1.6 4.8 0.00 0.25 0.25 83 1005.7
20210619160133 18 228 3.2 9.7 0.00 0.25 0.25 84 1005.7
20210619155134 18 225 3.2 6.4 0.00 0.25 0.25 85 1005.8
20210619154132 18 230 1.6 8.0 0.00 0.25 0.25 86 1006.2
20210619154033 18 219 1.6 3.2 0.00 0.25 0.25 86 1006.2
20210619153933 18 226 0.0 1.6 0.00 0.25 0.25 86 1006.1
20210619152933 18 212 4.8 8.0 0.00 0.25 0.25 88 1006.2
20210619152031 17 202 1.6 6.4 0.00 0.25 0.25 89 1006.0
20210619151032 17 204 3.2 6.4 0.00 0.25 0.25 90 1006.3
20210619150932 17 238 3.2 9.7 0.00 0.25 0.25 90 1006.3
20210619145932 17 260 1.6 4.8 0.00 0.25 0.25 91 1005.8
20210619144932 17 222 3.2 6.4 0.00 0.25 0.25 91 1006.0
20210619143934 16 192 3.2 6.4 0.03 0.25 0.25 91 1006.1
20210619143032 16 230 4.8 11.3 0.05 0.25 0.25 91 1006.0
20210619142033 16 202 0.0 3.2 0.23 0.25 0.25 90 1006.1
20210619141033 15 225 1.6 3.2 0.25 0.25 0.25 90 1006.1
20210619140039 15 202 0.0 3.2 0.25 0.25 0.25 90 1006.1
20210619135035 15 225 0.0 0.0 0.25 0.25 0.25 88 1006.3
20210619134032 15 167 3.2 3.2 0.23 0.23 0.23 88 1006.1
20210619133032 16 201 1.6 3.2 0.20 0.20 0.20 86 1006.3
20210619132034 16 221 4.8 9.7 0.03 0.03 0.03 84 1006.5
20210619131131 16 212 1.6 6.4 0.00 0.00 0.00 82 1006.7
20210619130131 17 225 3.2 12.9 0.00 0.00 0.00 79 1006.8
20210619125132 17 240 3.2 6.4 0.00 0.00 0.00 78 1006.9
20210619124232 17 222 4.8 9.7 0.00 0.00 0.00 76 1007.0
20210619124133 17 230 6.4 14.5 0.00 0.00 0.00 76 1007.0
20210619123133 17 230 4.8 8.0 0.00 0.00 0.00 75 1007.2
20210619122132 18 220 4.8 11.3 0.00 0.00 0.00 73 1006.6
20210619121133 18 230 3.2 4.8 0.00 0.00 0.00 72 1006.5
20210619120133 18 177 1.6 6.4 0.00 0.00 0.00 74 1006.2
20210619115133 17 226 3.2 4.8 0.00 0.00 0.00 76 1006.2
20210619114134 17 217 3.2 9.7 0.00 0.00 0.00 77 1006.5
20210619113233 16 201 3.2 8.0 0.00 0.00 0.00 78 1006.8
20210619112232 16 229 3.2 4.8 0.00 0.00 0.00 79 1006.8
20210619112132 16 246 1.6 3.2 0.00 0.00 0.00 79 1006.8
20210619111133 16 212 3.2 8.0 0.00 0.00 0.00 80 1006.8
20210619110136 16 223 3.2 4.8 0.00 0.00 0.00 80 1006.8
20210619105232 15 233 1.6 3.2 0.00 0.00 0.00 81 1006.8
20210619105131 15 180 0.0 1.6 0.00 0.00 0.00 81 1006.9
20210619104133 15 177 0.0 6.4 0.00 0.00 0.00 82 1006.8
20210619103133 15 199 1.6 6.4 0.00 0.00 0.00 84 1007.0